sat.trackr.live / text

‹ back to catalog

STARLINK-3849

NORAD 52343 · 2022-045N

PAYLOAD ACTIVE UNKNOWN

§ Identity

Operator
Country
US
Launch date
2022-04-29
Launch site
AFETR
Launch vehicle
Mass (kg)
RCS (m²)

Purposes: comms

External: N2YO · Heavens-Above · Gunter

§ Orbital elements

Epoch: 2026-09-20T04:00:03.000096Z

Period
93.79 min
Inclination
53.1597°
Eccentricity
0.0001078
Mean motion
15.35389184 rev/d
Perigee alt
459.0 km
Apogee alt
460.5 km
Semi-major
6,837.9 km
B*
5.4800e-5
RAAN
53.1131°
Arg perigee
79.9266°
Mean anomaly
156.3846°
Rev number
583

§ Raw data

STARLINK-38491 52343U 22045N   26263.16670139  .00001531  00000+0  54800-4 0  99922 52343  53.1597  53.1131 0001078  79.9266 156.3846 15.35389184  5834

JSON: /api/v1/satellites/52343 · /tle

For live sub-satellite position, see the globe view (requires WebGL).

§ Visibility from observer

Set your observer location to see the next 7 days of passes ≥ 10°. The values pass through the URL so the page stays shareable.

No JS? Fill the form by hand. The geolocation button needs JavaScript.